Regional Weather Roundup
Issued by NWS

Home | Current Version | Previous Version | Text Only | Print | Product List | Glossary Off
Versions: 1 2 3 4 5 6 7 8 9 10 11 12 13 14 15 16 17 18 19 20 21 22 23 24 25 26 27 28 29 30 31 32 33 34 35 36 37 38 39 40 41 42 43 44 45 46 47 48 49 50

000
ASUS45 KCYS 300510
RWRWY

WYOMING REGIONAL WEATHER ROUNDUP
NATIONAL WEATHER SERVICE CHEYENNE WY
1000 PM MST THU JAN 29 2015

NOTE:  "FAIR" INDICATES FEW OR NO CLOUDS BELOW 12,000 FEET
WITH NO SIGNIFICANT WEATHER AND/OR OBSTRUCTIONS TO VISIBILITY.

WYZ001-300600-
YELLOWSTONE NATIONAL PARK

CITY           SKY/WX    TMP DP  RH WIND       PRES   REMARKS
LK YELLOWSTONE   N/A      7   3  84 CALM      30.35F
W YELLOWSTONE  NOT AVBL

$$
WYZ002>013-054>058-071-098>099-300600-
NORTHERN WYOMING

CITY           SKY/WX    TMP DP  RH WIND       PRES   REMARKS
JACKSON        FAIR      16  16 100 N5        30.33F WCI   9
CODY             N/A     28  28 100 CALM      30.26F
GREYBULL       FAIR      26  25  96 W5        30.29F WCI  20
WORLAND        FAIR      26  23  88 S5        30.28F WCI  20
SHERIDAN       FAIR      26  20  77 CALM      30.22F
BUFFALO        FAIR      32  20  61 SW6       30.23F WCI  26
GILLETTE       FAIR      28  22  78 S12       30.25F WCI  18
HULETT           N/A    N/A N/A N/A MISG        N/A
NEWCASTLE      FAIR      34  19  55 SE9       30.32F WCI  26

$$
WYZ014>020-022>026-101>103-300600-
CENTRAL WYOMING

CITY           SKY/WX    TMP DP  RH WIND       PRES   REMARKS
BIG PINEY      FAIR      19  15  84 E3        30.32F
PINEDALE       FAIR      14  12  92 NW5       30.33F WCI   6
DUBOIS         FAIR      25  18  74 NW12      30.26F WCI  14
LANDER         FAIR      29  24  82 CALM      30.26F
RIVERTON       FAIR      30  27  88 W6        30.28F WCI  24
CASPER         FAIR      31  26  82 W10       30.27F WCI  22
DOUGLAS        FAIR      28  20  71 SE7       30.30F WCI  21

$$
WYZ021-027>030-104>119-300600-
SOUTHERN WYOMING

CITY           SKY/WX    TMP DP  RH WIND       PRES   REMARKS
EVANSTON       FAIR      31  27  85 NE3       30.29S
KEMMERER       FAIR      28  25  86 N10       30.30S WCI  19
FORT BRIDGER   FAIR      31  29  92 NE3       30.33R
ROCK SPRINGS   FAIR      32  27  81 E6        30.28F WCI  26
DIXON          FAIR      32  28  86 E3        30.32F
RAWLINS        FAIR      28  24  85 CALM      30.30F
SARATOGA       FAIR      28  27  93 CALM      30.30F
LARAMIE        FAIR      29  22  75 S16       30.29F WCI  17
CHEYENNE       FAIR      29  19  66 SW9       30.33F WCI  20
TORRINGTON     FAIR      27  20  75 E7        30.34F WCI  19
PINE BLUFFS    FAIR      28  21  74 S6        30.35F WCI  22

$$


USA.gov is the U.S. government's official web portal to all federal, state and local government web resources and services.